Location: Quedlinburg
(51.7921°N, 11.1414°E)
Time: 07:32:01
(UTC+02:00)

RS-44 - Pass Details

Date: 15 March 2026
Orbit: 1175 x 1510 km, 82.5° (Epoch: 13 April)

Event Time Altitude Azimuth Distance (km) Brightness Sun altitude
Rises 00:21:00 0° 349° (N) 4,338 ? -40.4°
Reaches altitude 10° 00:24:48 10° 6° (N) 3,423 ? -40.4°
Maximum altitude 00:30:28 20° 51° (NE) 2,817 ? -40.4°
Enters shadow 00:36:01 11° 93° (E) 3,507 ? -40.4°
